Lapse_Rate
6.9 7.1 7.4 7.1 6.6 6.6 6.9 6.9 7.0 7.1 7.4 7.7 7.9 8.0 8.2 8.5 8.2 7.8 7.6 7.4 7.0 6.8 6.5 6.3 6.5 6.8 7.0 7.0 6.9 6.7 6.6 6.9 6.9 6.9 7.0 7.1 7.1 6.9 7.0 6.8 6.9 6.8 6.9 6.7 6.5 6.5 6.5 6.7 6.7
6.6 6.9 7.2 7.2 6.8 6.7 7.2 7.1 7.3 7.4 7.5 7.4 7.6 7.8 7.7 8.0 7.9 7.7 7.7 7.4 6.9 6.8 6.4 6.3 6.3 6.6 7.0 6.9 6.8 6.6 6.6 6.7 6.7 6.8 6.9 6.9 6.9 7.1 7.1 7.1 7.2 6.9 6.8 6.9 6.6 6.5 6.6 6.6 6.6
6.6 6.6 6.8 6.9 7.0 7.0 7.1 7.0 7.1 7.2 7.1 7.0 7.0 7.1 7.1 7.7 7.7 7.4 7.5 7.2 6.9 6.7 6.5 6.4 6.6 6.7 7.0 7.0 6.8 6.5 6.4 6.5 6.4 6.6 6.7 6.8 6.9 6.9 6.9 7.1 7.7 7.2 6.8 6.7 6.6 6.5 6.7 6.8 6.7
6.2 6.3 6.6 6.9 7.4 7.1 6.8 6.7 6.4 6.7 6.8 6.8 6.7 6.9 6.9 7.2 7.3 7.2 7.1 6.8 6.6 6.7 6.4 6.4 6.5 6.7 6.9 7.0 6.9 6.6 6.4 6.3 6.3 6.2 6.6 6.6 7.1 6.6 6.6 6.8 7.7 8.1 7.1 7.0 7.1 7.0 6.9 6.9 6.8
5.9 5.9 6.2 7.2 7.5 7.5 7.1 6.6 6.4 6.5 6.6 6.8 6.7 6.7 7.0 6.8 6.7 6.4 6.8 6.8 6.7 6.8 6.7 6.5 6.6 6.8 6.9 7.0 7.0 6.9 6.6 6.2 6.3 6.4 6.2 6.6 7.2 6.3 6.3 6.8 7.2 8.0 7.6 7.4 7.4 7.4 7.1 6.8 6.5
5.6 5.6 5.8 7.2 8.0 7.9 7.7 6.7 6.6 6.8 6.8 6.7 6.7 6.7 7.0 7.0 6.4 6.4 6.7 6.7 6.7 6.7 6.8 6.7 6.7 6.9 7.0 7.0 6.9 7.0 7.0 6.7 6.4 6.0 5.9 6.4 6.6 6.6 5.6 6.1 6.6 7.2 7.0 7.3 7.1 7.2 7.0 6.9 6.6
5.8 5.4 5.6 6.7 7.9 8.2 7.9 6.7 6.8 6.9 7.0 6.9 6.9 6.9 7.1 7.3 7.0 6.8 6.8 7.1 7.0 6.8 6.9 6.7 6.9 7.1 7.1 7.1 7.1 7.0 6.9 6.8 6.5 6.4 6.2 6.5 5.6 5.8 5.6 5.8 5.4 6.6 6.3 6.6 6.7 6.7 6.8 6.9 6.5
5.9 5.2 5.1 6.3 7.3 8.6 7.8 6.8 6.8 6.3 6.5 6.7 7.1 7.1 7.2 7.3 7.2 7.2 7.2 7.4 7.1 6.8 6.8 6.9 6.8 7.1 7.3 7.2 7.1 7.2 7.2 6.8 6.5 6.5 6.7 6.4 6.2 5.9 5.2 5.1 5.2 5.9 6.6 6.3 6.7 6.8 6.7 6.6 6.4
5.9 5.1 4.9 6.7 6.9 8.3 7.6 7.2 6.9 6.5 6.5 6.6 6.6 6.9 7.4 7.4 7.3 7.3 7.5 7.5 7.3 6.8 6.7 6.9 6.9 7.1 7.3 7.2 7.1 7.2 7.2 6.6 6.4 6.2 6.1 6.2 6.2 6.0 5.5 5.4 5.3 5.1 5.8 6.5 6.6 6.6 6.8 6.6 6.4
5.7 5.5 5.6 6.7 6.7 7.0 7.1 6.5 6.9 6.6 6.7 6.5 6.7 6.9 7.2 7.5 7.4 7.6 7.5 7.5 7.7 7.3 6.8 6.9 7.0 7.2 7.2 7.2 7.2 7.1 7.2 6.8 6.1 5.8 5.9 6.3 6.3 6.0 5.7 5.4 5.2 4.6 5.5 6.1 6.2 6.5 7.1 6.9 6.5
5.9 5.7 6.2 6.2 6.4 6.1 7.0 6.5 6.8 6.5 6.4 6.7 6.9 7.1 7.4 7.7 7.7 7.8 7.8 7.7 7.7 7.5 7.2 7.0 7.3 7.3 7.3 7.1 7.3 7.3 7.2 6.9 6.4 5.8 5.5 5.6 5.7 5.8 5.9 5.5 5.1 5.1 5.4 5.7 5.9 6.6 7.3 6.8 6.5
5.5 5.8 5.9 5.9 6.2 6.0 5.8 6.8 6.3 6.5 6.7 7.1 7.3 7.3 7.5 7.8 7.8 7.7 8.1 8.0 7.9 7.9 7.6 7.3 7.4 7.4 7.4 7.3 7.4 7.2 7.0 6.8 6.2 5.7 5.5 5.2 5.2 5.1 5.3 5.5 5.3 5.2 5.4 5.3 6.0 6.6 6.7 6.6 6.4
5.5 5.7 6.0 5.7 5.7 5.8 5.9 6.2 6.8 6.9 7.3 7.1 6.9 6.8 7.3 7.4 8.0 8.1 8.1 8.0 8.0 8.1 7.8 7.5 7.4 7.4 7.3 7.2 7.2 7.0 6.7 6.3 5.9 6.0 5.5 5.2 5.2 5.4 5.2 5.3 4.9 5.5 5.4 5.1 6.0 6.3 6.3 6.3 6.4
6.1 5.9 5.8 5.9 5.7 5.8 5.9 6.4 5.9 6.8 7.3 6.9 6.6 6.9 7.4 7.8 7.8 8.2 8.1 7.9 8.1 8.2 8.0 7.6 7.4 7.3 7.3 7.2 7.0 6.6 6.3 5.9 5.9 5.7 5.5 5.1 5.1 5.3 5.0 5.5 5.0 5.6 5.4 5.1 5.4 6.0 6.2 6.3 6.6
5.8 5.8 5.6 5.7 6.1 6.1 6.2 6.0 6.0 6.4 6.6 6.8 6.8 7.1 7.6 8.2 8.2 8.0 8.0 8.1 8.1 8.2 8.1 7.8 7.4 7.4 7.3 7.1 6.8 6.4 5.8 6.0 5.9 5.6 5.2 5.2 5.2 5.2 5.4 5.2 5.2 5.3 5.1 4.9 5.1 5.5 5.7 6.3 6.2
5.8 5.6 5.6 6.1 6.4 6.4 6.0 6.5 6.3 6.3 6.3 6.4 6.6 6.9 7.5 8.2 8.3 8.4 8.4 8.4 8.2 8.2 8.0 8.0 7.4 7.3 7.3 7.2 6.8 6.2 5.9 6.1 5.7 5.6 5.1 5.1 5.1 5.2 5.4 5.4 5.3 5.6 4.9 4.8 5.3 5.4 5.5 6.5 6.1
5.6 5.6 5.8 6.0 6.4 6.3 6.1 5.9 6.1 6.3 6.6 6.5 6.6 6.8 7.4 8.0 8.3 8.6 8.6 8.6 8.6 8.3 8.0 7.9 7.4 7.5 7.4 7.4 6.9 6.4 6.2 6.1 5.8 5.3 5.3 5.1 5.1 5.5 5.1 5.4 5.5 5.6 4.8 4.8 4.9 5.2 5.8 6.0 6.2
6.7 6.1 6.2 6.0 6.2 6.8 6.0 6.1 6.3 6.2 6.3 6.5 6.5 6.4 7.5 8.2 8.2 8.6 8.9 8.6 8.5 8.5 8.1 7.9 7.5 7.5 7.4 7.4 7.0 6.6 6.5 6.3 6.1 5.7 5.5 5.1 5.2 5.4 5.3 5.1 5.4 5.5 4.9 4.7 5.0 5.0 5.6 5.8 6.0
6.4 6.1 5.9 6.0 6.5 6.2 6.4 6.2 6.2 6.2 6.1 6.4 6.3 6.6 7.6 8.2 8.4 8.4 8.8 8.5 8.0 8.5 8.4 8.3 7.6 7.5 7.5 7.4 7.2 6.8 6.7 6.3 6.0 6.3 5.5 5.3 5.4 5.3 5.2 5.1 5.4 5.6 5.2 5.1 5.2 5.7 5.6 5.5 5.6
6.2 5.9 6.0 6.6 7.2 6.7 6.2 5.8 6.1 5.9 5.9 6.5 6.6 7.1 7.6 8.1 8.5 8.5 8.7 8.5 8.0 8.4 8.6 8.4 7.7 7.6 7.6 7.3 7.4 6.9 6.7 6.4 5.8 6.0 6.1 5.3 5.1 5.1 4.9 4.9 5.2 5.6 5.5 5.1 5.3 5.5 5.9 5.1 5.5
6.3 6.2 6.3 6.7 6.8 6.7 6.2 5.7 5.9 5.7 5.9 6.7 7.0 7.3 7.4 7.4 8.6 8.6 8.8 8.4 8.5 8.5 8.9 8.6 7.9 7.6 7.6 7.4 7.3 7.0 6.9 6.5 5.9 5.8 5.8 5.6 5.1 5.1 5.0 4.9 5.5 5.6 5.5 5.4 5.5 5.5 5.6 5.7 5.5
6.5 7.1 7.2 6.8 6.5 5.7 6.7 5.4 5.5 5.9 6.2 6.6 7.1 7.1 7.2 7.1 7.9 8.2 8.4 8.5 8.5 8.5 8.7 8.5 8.0 7.7 7.6 7.5 7.2 7.0 6.9 6.6 6.4 5.9 5.8 5.5 5.3 5.2 5.1 4.9 5.3 5.6 5.5 5.3 5.5 5.5 5.7 5.6 5.5
6.9 7.3 7.0 6.9 6.8 6.7 6.2 6.0 5.2 5.6 5.8 6.5 7.1 7.1 7.1 6.9 7.8 7.8 8.0 8.5 8.7 8.2 8.6 8.4 7.9 7.8 7.7 7.6 7.3 7.0 6.8 6.6 6.2 5.7 5.6 5.7 5.4 5.5 5.6 5.4 5.5 5.5 5.2 5.2 5.2 5.3 5.4 5.3 5.3
7.2 7.1 7.2 7.2 7.0 6.1 6.1 6.6 5.7 5.8 6.3 6.2 6.7 7.2 7.3 7.0 7.6 7.7 8.1 8.2 8.5 7.8 8.2 8.3 7.8 7.9 7.7 7.6 7.4 7.0 6.7 6.5 6.3 6.0 5.6 5.6 5.6 5.6 5.6 5.8 5.6 5.4 5.3 5.0 4.8 5.0 4.7 5.2 5.2
7.5 7.2 6.6 6.6 6.1 6.1 6.8 6.9 6.1 5.8 6.5 6.6 6.5 7.1 7.1 7.6 8.1 8.0 8.1 8.5 8.5 8.0 8.0 7.9 7.8 8.0 7.8 7.7 7.5 7.1 6.7 6.3 6.0 5.8 5.9 5.9 5.6 5.7 5.6 5.6 5.8 5.8 5.6 5.3 4.8 4.7 4.4 4.8 4.4
8.0 7.8 7.4 6.7 6.2 6.6 7.2 6.3 6.0 6.4 6.7 6.9 7.1 6.8 6.8 7.3 7.6 8.2 8.4 8.9 8.9 8.2 7.8 7.9 8.1 8.1 7.8 7.7 7.5 7.3 7.0 6.2 5.7 5.7 5.6 5.8 5.5 5.4 5.4 5.5 5.5 5.7 5.6 5.4 5.3 4.8 4.5 4.5 4.6
7.9 8.1 8.0 7.9 7.9 7.2 6.9 6.7 6.5 7.2 7.1 7.1 7.1 7.0 7.1 7.3 7.4 7.9 8.6 9.0 9.0 8.8 8.2 8.2 8.2 8.0 7.9 7.8 7.7 7.5 7.1 6.2 5.8 5.7 5.4 5.9 5.6 5.5 5.4 5.4 5.3 5.7 5.2 5.3 5.3 4.9 4.9 4.9 5.2
8.1 7.9 8.1 8.1 7.7 7.8 6.8 6.6 6.6 7.5 7.4 7.0 7.0 7.2 7.3 7.3 7.8 8.4 8.8 9.1 8.9 8.7 8.2 8.0 8.1 8.0 7.9 7.8 7.7 7.6 7.4 6.6 6.1 5.8 5.6 5.8 5.8 5.3 5.3 5.3 5.1 5.4 5.2 5.1 5.0 4.9 4.9 5.0 5.1
8.3 8.0 7.6 7.5 8.0 7.6 7.2 7.1 7.6 7.2 7.1 6.8 6.8 6.8 6.6 6.7 7.4 7.4 7.9 8.3 8.6 7.9 7.5 8.0 8.0 8.1 8.1 7.9 7.8 7.7 7.6 7.2 6.8 6.2 5.8 5.5 5.8 5.5 5.4 5.2 5.2 5.6 5.1 5.4 5.2 5.2 5.1 5.1 5.2
7.9 7.7 7.5 7.4 6.9 6.7 6.9 6.8 7.8 7.9 7.2 6.6 6.6 6.5 6.4 6.5 6.1 6.3 6.7 7.6 8.0 7.8 7.3 7.6 8.0 8.1 8.0 7.9 7.8 7.7 7.8 7.7 7.2 6.9 6.1 5.7 5.7 5.6 5.4 5.1 5.2 5.2 5.3 5.1 5.2 5.3 5.4 5.6 5.3
Wind_Speed
6 3 2 4 3 4 3 6 3 3 2 4 4 5 7 4 5 4 3 8 6 9 12 16 18 19 19 20 20 19 18 20 21 22 25 27 27 27 26 23 23 22 24 25 24 24 24 25 26
4 3 4 3 4 2 5 4 5 7 4 3 2 4 2 3 1 4 4 7 10 10 12 15 19 20 20 20 19 21 21 21 22 21 23 23 24 24 23 23 21 21 22 24 23 23 25 25 25
4 3 3 4 3 5 5 4 2 9 5 4 1 1 6 4 3 7 7 12 11 10 12 14 21 21 20 21 21 22 23 23 21 22 24 24 24 24 25 24 23 22 21 23 24 24 24 24 24
2 4 4 3 7 7 5 4 4 10 7 4 4 2 1 5 10 10 9 12 11 9 13 15 20 21 20 21 21 23 25 24 24 22 25 23 22 20 20 22 24 22 22 23 24 24 24 23 22
4 3 1 2 6 5 5 6 6 8 5 6 4 3 3 8 3 8 14 13 14 10 11 15 20 20 21 22 22 22 22 23 24 30 28 30 24 18 15 18 19 23 21 21 24 24 23 21 22
3 3 3 5 6 5 4 9 4 5 7 4 2 4 4 5 5 9 10 13 10 12 9 12 18 19 20 20 22 22 22 22 24 29 20 25 29 25 12 13 16 22 21 22 24 23 22 21 20
6 4 5 5 5 8 3 4 4 6 2 6 2 6 4 5 8 6 6 7 6 6 7 6 14 15 18 19 20 21 22 23 25 19 25 32 26 23 19 17 20 22 21 21 21 22 22 22 22
5 4 5 5 3 11 5 4 3 5 7 6 5 5 5 7 6 6 7 6 5 6 7 8 8 11 12 16 21 21 20 21 23 23 19 22 26 30 32 23 19 25 23 19 19 20 21 21 27
5 3 4 6 7 8 6 7 2 5 5 4 3 4 6 6 11 6 3 3 3 3 6 6 7 7 9 11 12 17 22 14 24 24 23 21 19 23 30 24 19 20 23 20 19 18 19 18 26
5 5 10 7 6 9 7 4 15 4 12 9 8 2 3 7 10 9 9 10 6 7 6 7 7 7 6 7 10 10 10 12 20 23 21 19 17 18 18 23 23 23 22 21 20 19 21 19 19
6 7 6 5 8 8 14 4 5 5 9 10 11 8 6 5 12 14 12 9 16 11 6 8 8 7 7 5 4 5 7 8 14 24 22 18 14 15 13 13 18 16 20 12 16 17 13 15 18
5 6 5 4 7 6 6 9 5 9 11 11 12 6 5 9 13 15 13 13 10 9 11 10 9 8 7 4 5 6 5 5 6 16 26 15 7 9 9 8 15 13 14 10 11 9 11 12 16
6 6 8 8 11 10 10 11 12 10 11 12 10 6 9 9 15 15 17 11 7 9 9 11 10 8 7 6 4 7 7 8 8 11 19 22 11 11 9 8 14 12 14 12 9 9 9 8 11
4 3 6 7 8 6 9 12 4 7 9 8 6 9 8 11 15 14 10 13 13 11 12 11 12 10 8 7 7 6 6 7 7 10 16 24 19 12 11 9 10 9 15 13 12 10 7 4 11
3 5 5 6 7 7 2 18 8 9 6 6 9 8 9 6 10 17 20 20 18 11 12 14 12 8 9 9 7 6 6 6 7 7 17 19 22 15 13 11 9 8 13 14 11 8 9 4 6
2 2 4 4 6 5 6 33 1 9 5 10 10 8 8 10 7 11 18 17 12 10 14 12 10 10 8 8 7 5 6 5 6 7 15 21 20 28 13 11 9 13 13 12 8 7 7 4 7
1 9 6 4 6 6 7 19 2 7 11 9 9 9 9 11 12 9 16 17 14 13 13 12 10 11 11 7 6 7 6 5 4 8 9 16 15 22 12 10 8 16 8 8 8 3 8 6 6
6 6 5 4 4 3 6 19 9 9 10 11 9 10 9 9 18 9 9 9 11 12 12 11 10 10 8 6 7 5 4 3 3 2 9 16 11 17 10 10 10 14 9 8 6 8 3 4 6
2 4 7 2 4 5 16 17 14 11 9 10 10 12 14 11 15 8 6 10 7 11 13 14 13 10 8 6 7 5 4 4 3 2 13 12 14 16 12 10 11 10 11 11 11 7 9 3 5
6 8 13 9 10 6 11 20 17 7 8 9 10 14 15 15 9 7 6 11 17 14 15 13 13 12 7 6 2 3 4 3 3 4 10 12 13 15 11 12 11 12 10 10 11 11 4 3 7
7 9 4 12 6 5 8 19 12 7 5 7 9 12 14 16 11 9 9 11 11 17 16 15 14 13 8 6 4 4 4 4 3 5 6 9 13 14 13 14 12 13 11 11 12 11 11 6 2
13 8 13 11 3 9 6 15 20 6 9 6 9 13 13 9 10 9 11 11 15 15 12 12 13 12 9 8 6 9 5 7 4 6 6 7 10 13 13 13 14 15 11 13 11 9 9 6 10
11 8 9 11 8 2 5 2 15 8 16 13 10 10 9 10 11 11 15 17 12 10 12 11 12 12 11 9 7 6 5 3 4 6 9 9 9 14 13 14 15 14 11 12 14 11 6 6 9
3 2 2 1 1 6 6 6 23 4 9 7 10 16 11 11 10 10 13 11 10 8 8 11 13 13 11 10 8 8 8 6 4 6 7 9 8 11 14 15 14 13 12 11 11 9 9 7 7
4 5 2 3 2 11 5 4 15 8 9 8 8 12 12 15 19 13 11 15 16 16 13 11 14 12 12 11 11 9 8 8 8 7 8 9 9 10 18 15 14 12 13 11 9 10 9 9 10
5 8 5 6 5 7 4 5 5 4 3 6 8 8 14 21 22 22 14 18 18 18 15 14 15 14 14 12 10 8 8 5 6 8 7 8 10 7 15 15 14 14 13 12 12 8 8 7 7
2 4 4 4 3 2 5 6 6 4 7 8 8 12 14 18 21 23 6 11 15 18 18 16 15 15 13 12 9 8 8 7 7 7 7 7 12 10 13 17 15 14 15 14 13 8 9 8 7
4 3 2 3 3 6 5 3 5 7 5 8 12 13 15 22 26 21 2 6 9 12 14 13 13 15 11 11 10 8 10 7 6 6 6 5 6 11 12 13 15 15 14 16 15 12 10 8 6
4 3 4 1 1 3 4 5 2 2 1 7 10 12 18 25 24 21 13 6 6 6 9 13 12 12 12 11 9 8 9 8 7 6 7 6 6 10 9 13 13 16 16 15 12 11 12 11 8
4 4 3 3 4 2 3 5 5 12 2 3 2 8 14 21 24 20 18 7 8 6 8 9 11 12 11 10 10 8 8 9 8 6 6 8 8 8 10 9 11 12 14 15 13 12 10 10 10
Wind_Direction
160 151 98 48 42 60 267 263 245 280 246 215 146 155 179 171 163 210 252 179 151 160 175 175 165 156 151 147 142 139 134 130 130 129 130 133 135 135 135 135 136 135 137 137 135 136 134 132 125
148 141 42 91 92 41 267 262 256 260 265 173 117 100 116 220 135 157 121 184 163 162 172 179 171 162 157 150 147 145 142 139 138 135 132 130 129 133 137 138 139 139 141 140 140 137 137 131 122
139 51 84 99 130 191 219 228 351 335 321 305 190 211 151 210 175 183 219 156 150 164 174 187 175 166 160 153 151 149 147 150 148 141 135 137 141 144 145 145 145 147 148 149 147 141 136 128 124
104 17 35 104 224 253 223 250 316 319 309 232 253 204 267 215 159 195 161 153 154 167 178 190 181 169 162 160 159 157 156 156 149 149 143 140 139 144 149 147 148 149 155 152 145 141 137 131 122
38 56 51 254 250 252 238 261 264 256 233 240 202 240 261 319 1 151 156 162 170 177 184 184 181 171 168 167 163 162 162 157 158 161 152 145 140 132 152 150 153 148 154 150 140 141 137 130 125
52 97 74 258 250 252 261 252 262 237 227 236 198 150 232 293 169 181 162 178 174 174 174 176 180 174 171 171 169 167 168 166 173 161 158 144 133 143 175 159 165 145 151 143 142 139 136 122 119
129 102 207 255 282 297 227 310 299 289 240 235 165 154 266 263 225 182 159 138 136 143 151 160 178 177 170 171 173 174 178 173 171 156 152 137 145 148 156 194 179 140 143 144 141 139 136 123 127
124 114 174 240 249 277 216 314 267 17 308 279 165 192 243 234 142 99 83 95 138 159 161 160 164 167 170 184 180 186 186 184 157 159 167 154 157 169 157 206 181 147 145 145 145 143 139 136 139
130 103 195 231 179 253 313 359 299 323 262 318 287 146 263 106 115 102 103 136 158 190 177 157 157 170 174 175 175 184 200 172 162 165 168 160 160 166 173 185 167 157 146 147 149 144 132 127 138
160 162 210 215 204 275 275 289 294 343 306 288 306 257 44 139 150 168 183 193 199 200 197 174 164 175 166 174 171 170 173 171 177 174 170 168 168 169 193 161 165 166 149 152 155 144 130 130 128
197 218 189 244 241 239 281 240 249 271 282 250 266 262 163 166 180 191 206 202 203 202 187 183 175 176 170 168 166 166 168 166 177 177 176 175 172 175 176 160 162 161 141 150 150 149 136 144 137
249 202 198 235 262 268 241 292 248 227 245 257 249 258 183 187 192 206 212 218 205 190 192 178 178 177 182 163 173 184 175 172 179 185 183 173 174 178 171 173 156 147 148 149 150 149 134 138 146
216 243 240 229 260 267 271 252 258 248 246 265 277 236 215 211 212 213 218 223 219 208 192 181 171 179 179 176 168 181 184 187 170 173 186 179 177 177 169 171 160 151 140 160 149 139 133 139 137
272 251 258 250 237 242 267 270 210 254 262 282 289 291 224 210 219 228 219 222 209 206 190 177 180 176 168 187 177 182 172 177 176 176 189 191 179 177 178 171 156 149 155 154 161 160 143 157 150
251 292 285 224 231 231 253 270 229 251 294 285 291 284 288 238 223 217 219 218 214 200 171 182 177 165 171 187 181 180 178 171 187 201 200 196 181 175 173 165 151 154 148 145 138 137 134 133 143
314 262 258 230 196 251 113 272 133 290 291 292 296 294 298 291 235 240 231 220 207 168 170 167 169 170 179 186 184 184 188 177 192 201 202 213 206 164 167 153 152 152 144 149 160 155 138 170 140
288 255 238 283 261 258 180 277 242 317 292 284 282 285 291 299 303 267 244 213 189 167 156 166 168 174 182 189 179 180 178 194 219 218 182 191 194 146 149 143 153 151 156 160 169 153 160 156 134
209 247 240 192 264 260 264 278 287 275 279 271 281 291 291 296 291 293 244 197 171 152 154 163 172 170 166 167 184 171 160 183 168 207 155 165 146 147 146 151 152 155 161 163 163 168 162 132 139
261 255 259 219 227 299 279 277 279 278 284 288 289 292 291 286 288 273 173 146 155 150 157 171 164 164 156 159 175 172 166 172 164 220 158 170 160 153 152 156 158 166 167 170 173 171 163 101 127
241 259 275 290 250 185 271 276 278 249 251 245 267 281 286 294 287 272 180 176 166 172 171 171 166 160 169 150 151 138 149 142 137 159 160 165 163 167 164 164 165 172 170 172 175 178 141 110 164
227 236 240 255 320 252 286 281 270 253 247 255 257 267 278 277 264 246 193 194 173 178 176 174 163 161 163 139 124 107 97 111 146 148 172 170 172 165 172 174 171 177 178 182 180 182 175 159 188
255 198 241 260 245 272 178 285 286 258 281 270 287 283 274 272 244 224 194 189 184 191 173 165 159 156 156 155 150 162 151 163 177 175 167 175 173 178 178 183 182 183 180 181 185 186 179 158 175
246 209 233 245 255 320 210 231 289 352 302 291 291 292 275 248 231 216 201 201 190 180 173 159 156 156 157 164 168 158 151 132 137 170 183 187 183 191 185 186 187 186 184 184 179 186 170 167 170
232 170 270 357 175 248 265 171 281 230 271 297 315 310 332 324 272 234 213 173 174 163 180 160 162 170 161 168 175 173 158 150 160 172 180 196 196 199 190 188 184 184 181 180 184 175 160 154 141
166 103 329 299 199 251 178 237 257 287 284 307 323 315 332 337 348 297 185 178 177 175 178 173 168 171 175 177 179 174 165 170 185 191 199 203 207 199 192 183 181 182 179 163 158 162 151 152 152
184 160 169 233 224 261 225 241 244 247 351 331 325 343 337 357 348 325 218 186 181 176 174 178 173 171 178 178 180 176 163 181 206 212 206 213 214 206 179 175 174 175 162 155 154 154 146 127 134
225 160 210 244 253 261 235 284 312 314 3 337 345 348 342 354 342 327 211 201 185 172 177 180 171 175 183 179 170 172 167 184 196 205 220 233 218 179 182 170 166 162 157 156 154 155 134 139 159
81 2 55 0 224 239 264 246 243 303 344 345 347 342 343 343 332 337 211 203 201 184 170 173 172 180 179 175 175 169 166 175 161 161 167 173 145 158 168 161 171 163 162 160 160 156 144 157 159
14 38 35 215 276 290 274 269 192 322 10 351 4 360 348 334 323 321 311 191 170 162 191 167 168 172 178 177 176 164 157 158 161 157 151 138 139 145 152 154 157 154 153 150 152 151 159 157 168
131 123 103 145 359 298 241 270 54 20 82 207 36 4 6 309 310 310 324 175 141 145 199 188 177 175 179 173 172 170 159 151 156 152 149 143 136 142 147 153 151 150 152 150 153 155 160 176 178